TimeCDT,TemperatureF,Dew PointF,Humidity,Sea Level PressureIn,VisibilityMPH,Wind Direction,Wind SpeedMPH,Gust SpeedMPH,PrecipitationIn,Events,Conditions,WindDirDegrees,DateUTC
12:15 AM,71.6,67.8,88,29.83,10.0,Calm,Calm,-,N/A,,Clear,0,2013-08-31 05:15:00
12:35 AM,71.8,67.5,86,29.82,10.0,ENE,5.8,-,N/A,,Clear,60,2013-08-31 05:35:00
12:55 AM,71.4,67.5,87,29.81,10.0,NE,5.8,-,N/A,,Clear,50,2013-08-31 05:55:00
1:15 AM,70.7,67.5,89,29.81,10.0,ENE,4.6,-,N/A,,Clear,70,2013-08-31 06:15:00
1:35 AM,70.2,67.5,91,29.81,10.0,NE,5.8,-,N/A,,Clear,50,2013-08-31 06:35:00
1:55 AM,70.3,68.0,92,29.82,10.0,ENE,8.1,-,N/A,,Clear,70,2013-08-31 06:55:00
2:15 AM,70.7,68.0,91,29.83,10.0,East,8.1,-,N/A,,Scattered Clouds,80,2013-08-31 07:15:00
2:35 AM,70.3,67.6,91,29.84,7.0,East,4.6,-,N/A,,Mostly Cloudy,90,2013-08-31 07:35:00
2:55 AM,70.5,67.8,91,29.85,7.0,Calm,Calm,-,N/A,,Overcast,0,2013-08-31 07:55:00
3:15 AM,70.3,67.6,91,29.84,7.0,ESE,3.5,-,N/A,,Mostly Cloudy,120,2013-08-31 08:15:00
3:35 AM,70.2,67.5,91,29.84,7.0,East,6.9,-,N/A,,Mostly Cloudy,90,2013-08-31 08:35:00
3:55 AM,70.2,67.6,92,29.85,5.0,East,5.8,-,N/A,,Overcast,90,2013-08-31 08:55:00
4:15 AM,70.2,67.6,92,29.85,5.0,East,6.9,-,N/A,,Overcast,80,2013-08-31 09:15:00
4:35 AM,70.2,68.0,93,29.85,5.0,East,4.6,-,N/A,,Overcast,100,2013-08-31 09:35:00
4:55 AM,70.3,68.0,92,29.84,5.0,ESE,5.8,-,N/A,,Overcast,110,2013-08-31 09:55:00
5:15 AM,70.7,68.0,91,29.85,5.0,ENE,4.6,-,N/A,,Overcast,70,2013-08-31 10:15:00
5:35 AM,70.0,67.6,92,29.85,4.0,ENE,6.9,-,N/A,,Overcast,60,2013-08-31 10:35:00
5:55 AM,69.8,68.0,94,29.84,4.0,East,6.9,-,N/A,,Overcast,90,2013-08-31 10:55:00
6:15 AM,69.8,67.6,93,29.84,4.0,East,8.1,-,N/A,,Overcast,80,2013-08-31 11:15:00
6:35 AM,69.8,67.6,93,29.84,3.0,East,5.8,-,N/A,,Overcast,100,2013-08-31 11:35:00
6:55 AM,69.4,67.5,93,29.83,4.0,East,6.9,-,N/A,,Mostly Cloudy,100,2013-08-31 11:55:00
7:15 AM,69.8,67.5,92,29.83,5.0,East,8.1,-,N/A,,Mostly Cloudy,100,2013-08-31 12:15:00
7:35 AM,70.0,67.5,92,29.84,5.0,East,6.9,-,N/A,,Overcast,90,2013-08-31 12:35:00
7:55 AM,70.7,67.6,90,29.83,7.0,ESE,9.2,-,N/A,,Overcast,110,2013-08-31 12:55:00
8:15 AM,71.6,68.0,88,29.83,7.0,ESE,9.2,-,N/A,,Overcast,110,2013-08-31 13:15:00
8:35 AM,72.3,68.2,87,29.83,7.0,ESE,10.4,16.1,N/A,,Mostly Cloudy,110,2013-08-31 13:35:00
8:55 AM,72.9,67.6,84,29.82,7.0,ESE,8.1,-,N/A,,Mostly Cloudy,120,2013-08-31 13:55:00
9:15 AM,74.5,68.5,82,29.83,7.0,ESE,5.8,-,N/A,,Mostly Cloudy,110,2013-08-31 14:15:00
9:35 AM,75.2,69.1,81,29.83,10.0,ESE,9.2,-,N/A,,Mostly Cloudy,110,2013-08-31 14:35:00
9:55 AM,75.2,68.0,78,29.83,10.0,East,8.1,-,N/A,,Mostly Cloudy,100,2013-08-31 14:55:00
10:15 AM,75.6,68.2,78,29.82,10.0,East,9.2,-,N/A,,Scattered Clouds,90,2013-08-31 15:15:00
10:35 AM,76.3,69.1,78,29.83,10.0,East,6.9,-,N/A,,Scattered Clouds,90,2013-08-31 15:35:00
10:55 AM,77.9,69.3,75,29.83,10.0,ESE,6.9,-,N/A,,Scattered Clouds,120,2013-08-31 15:55:00
11:15 AM,77.0,68.5,75,29.83,10.0,East,8.1,-,N/A,Thunderstorm,Mostly Cloudy,80,2013-08-31 16:15:00
11:35 AM,78.3,69.4,74,29.81,10.0,East,11.5,-,N/A,,Scattered Clouds,90,2013-08-31 16:35:00
11:55 AM,80.2,70.0,71,29.81,10.0,ESE,8.1,-,N/A,,Scattered Clouds,110,2013-08-31 16:55:00
12:15 PM,80.2,70.0,71,29.81,10.0,ENE,5.8,-,N/A,,Overcast,70,2013-08-31 17:15:00
12:35 PM,78.1,71.6,80,29.80,7.0,ENE,9.2,-,N/A,Rain,Light Rain,60,2013-08-31 17:35:00
12:55 PM,77.9,71.4,80,29.80,10.0,ENE,11.5,-,N/A,,Mostly Cloudy,60,2013-08-31 17:55:00
1:15 PM,78.3,70.9,78,29.81,10.0,ENE,9.2,-,N/A,,Overcast,70,2013-08-31 18:15:00
1:35 PM,78.3,70.7,77,29.80,10.0,NE,10.4,-,N/A,,Overcast,50,2013-08-31 18:35:00
1:55 PM,79.7,71.6,76,29.80,10.0,East,11.5,-,N/A,,Overcast,90,2013-08-31 18:55:00
2:15 PM,80.2,71.1,73,29.80,10.0,East,4.6,-,N/A,,Overcast,100,2013-08-31 19:15:00
2:35 PM,81.0,70.7,71,29.80,10.0,Calm,Calm,-,N/A,,Overcast,0,2013-08-31 19:35:00
2:55 PM,81.0,70.7,71,29.80,10.0,Calm,Calm,-,N/A,,Overcast,0,2013-08-31 19:55:00
3:15 PM,81.0,70.5,70,29.79,10.0,Calm,Calm,-,N/A,,Overcast,0,2013-08-31 20:15:00
3:35 PM,81.0,71.6,73,29.78,10.0,NE,8.1,-,N/A,,Overcast,40,2013-08-31 20:35:00
3:55 PM,80.2,71.6,75,29.79,10.0,North,8.1,-,N/A,,Overcast,10,2013-08-31 20:55:00
4:15 PM,80.2,72.3,77,29.79,10.0,NE,10.4,-,N/A,,Overcast,40,2013-08-31 21:15:00
4:35 PM,78.6,71.4,78,29.79,10.0,NE,9.2,-,N/A,,Overcast,40,2013-08-31 21:35:00
4:55 PM,78.8,71.1,77,29.78,10.0,NE,8.1,-,N/A,,Overcast,50,2013-08-31 21:55:00
5:15 PM,78.3,70.3,77,29.79,10.0,NE,10.4,-,N/A,,Overcast,50,2013-08-31 22:15:00
5:35 PM,78.1,71.1,79,29.79,10.0,NE,9.2,-,N/A,,Overcast,40,2013-08-31 22:35:00
5:55 PM,77.9,70.9,79,29.78,10.0,NE,8.1,-,N/A,,Overcast,40,2013-08-31 22:55:00
6:15 PM,77.0,70.5,80,29.78,10.0,NE,9.2,-,N/A,,Overcast,50,2013-08-31 23:15:00
6:35 PM,76.6,70.0,80,29.78,10.0,ENE,5.8,-,N/A,,Overcast,60,2013-08-31 23:35:00
6:55 PM,76.5,69.4,79,29.78,10.0,ENE,8.1,-,N/A,,Overcast,60,2013-08-31 23:55:00
7:15 PM,76.1,69.4,80,29.79,10.0,ENE,6.9,-,N/A,,Overcast,60,2013-09-01 00:15:00
7:35 PM,75.7,69.4,81,29.80,10.0,NE,5.8,-,N/A,,Overcast,50,2013-09-01 00:35:00
7:55 PM,75.4,69.8,83,29.80,10.0,NE,6.9,-,N/A,,Overcast,50,2013-09-01 00:55:00
8:15 PM,75.2,69.8,83,29.80,10.0,ENE,5.8,-,N/A,,Mostly Cloudy,60,2013-09-01 01:15:00
8:35 PM,74.7,70.0,85,29.81,10.0,ENE,5.8,-,N/A,,Mostly Cloudy,70,2013-09-01 01:35:00
8:55 PM,73.4,69.3,87,29.82,10.0,NE,6.9,-,N/A,,Scattered Clouds,40,2013-09-01 01:55:00
9:15 PM,73.6,70.0,88,29.82,10.0,North,6.9,-,N/A,,Scattered Clouds,10,2013-09-01 02:15:00
9:35 PM,72.9,68.9,87,29.83,10.0,NNE,9.2,-,N/A,,Clear,30,2013-09-01 02:35:00
9:55 PM,72.3,68.7,88,29.83,7.0,NE,8.1,-,N/A,,Clear,40,2013-09-01 02:55:00
10:15 PM,72.0,68.5,89,29.84,7.0,NNE,5.8,-,N/A,,Clear,30,2013-09-01 03:15:00
10:35 PM,71.6,68.0,88,29.84,7.0,NNE,8.1,-,N/A,,Clear,30,2013-09-01 03:35:00
10:55 PM,70.3,67.1,89,29.83,7.0,ENE,6.9,-,N/A,,Clear,70,2013-09-01 03:55:00
11:15 PM,70.2,66.6,88,29.84,10.0,ENE,5.8,-,N/A,,Clear,60,2013-09-01 04:15:00
11:35 PM,69.4,66.2,89,29.83,10.0,East,5.8,-,N/A,,Clear,80,2013-09-01 04:35:00
11:55 PM,69.1,65.7,89,29.82,10.0,East,6.9,-,N/A,,Clear,80,2013-09-01 04:55:00